This is the latest recevied weather packets stored in our database for station/object K7LDN-13. If no packets are shown the sender has not sent any weather packets the latest 1 day(s).
| Time | Temp. | Humidity | Pressure | Rain* | Wind** | Luminosity | Snow |
|---|---|---|---|---|---|---|---|
| 1777987719 | 12.22° C | 56% | 1012 hPa | 0 mm | 4.02 m/s, 135° | 8 W/m² | - |
| 1777987417 | 12.22° C | 58% | 1011.8 hPa | 0 mm | 4.02 m/s, 151° | 7 W/m² | - |
| 1777987114 | 12.22° C | 59% | 1011.9 hPa | 0 mm | 2.68 m/s, 156° | 6 W/m² | - |
| 1777986811 | 12.22° C | 60% | 1012 hPa | 0 mm | 2.68 m/s, 149° | 6 W/m² | - |
| 1777986509 | 12.22° C | 62% | 1011.9 hPa | 0 mm | 5.81 m/s, 165° | 5 W/m² | - |
| 1777986207 | 12.22° C | 61% | 1011.9 hPa | 0 mm | 2.68 m/s, 166° | 5 W/m² | - |
| 1777985904 | 12.78° C | 64% | 1011.6 hPa | 0 mm | 2.68 m/s, 158° | 4 W/m² | - |
| 1777985601 | 12.78° C | 64% | 1011.7 hPa | 0 mm | 2.68 m/s, 158° | 3 W/m² | - |
| 1777985298 | 12.78° C | 64% | 1011.8 hPa | 0 mm | 2.24 m/s, 151° | 2 W/m² | - |
| 1777984994 | 12.78° C | 63% | 1011.4 hPa | 0 mm | 3.13 m/s, 152° | 2 W/m² | - |
| 1777984690 | 12.78° C | 63% | 1011.4 hPa | 0 mm | 3.13 m/s, 165° | 1 W/m² | - |
| 1777984387 | 12.78° C | 63% | 1011.4 hPa | 0 mm | 4.02 m/s, 180° | 1 W/m² | - |
| 1777984083 | 12.78° C | 63% | 1011.5 hPa | 0 mm | 3.13 m/s, 186° | 1 W/m² | - |
| 1777983781 | 12.78° C | 63% | 1011.2 hPa | 0 mm | 4.47 m/s, 191° | 0 W/m² | - |
| 1777983477 | 12.78° C | 63% | 1011 hPa | 0 mm | 2.68 m/s, 171° | 0 W/m² | - |
| 1777983174 | 12.78° C | 65% | 1011.5 hPa | 0 mm | 3.13 m/s, 174° | 0 W/m² | - |
| 1777982870 | 12.78° C | 65% | 1011.5 hPa | 0 mm | 1.79 m/s, 190° | 0 W/m² | - |
| 1777982566 | 12.78° C | 65% | 1011.5 hPa | 0 mm | 2.24 m/s, 168° | 0 W/m² | - |
| 1777982265 | 12.78° C | 64% | 1011.5 hPa | 0 mm | 1.79 m/s, 172° | 0 W/m² | - |
| 1777981963 | 12.78° C | 64% | 1011.5 hPa | 0 mm | 3.58 m/s, 178° | 0 W/m² | - |
| 1777981660 | 12.78° C | 64% | 1011.6 hPa | 0 mm | 2.24 m/s, 178° | 0 W/m² | - |
| 1777981359 | 12.78° C | 65% | 1011.7 hPa | 0 mm | 3.13 m/s, 179° | 0 W/m² | - |
| 1777981053 | 12.78° C | 68% | 1011.6 hPa | 0 mm | 3.58 m/s, 146° | 0 W/m² | - |
| 1777980750 | 12.78° C | 69% | 1011.7 hPa | 0 mm | 4.02 m/s, 182° | 0 W/m² | - |
| 1777980446 | 12.78° C | 70% | 1011.7 hPa | 0 mm | 1.34 m/s, 156° | 0 W/m² | - |
* Rain latest hour (hover to see other rain measurements)
** Current wind speed in m/s (hover to see current wind gust speed)